Year,Month,Day,Hour,Minute,Value (Times are PST for temperature in C)
2012,09,18,00,00,14.40
2012,09,18,00,01,14.50
2012,09,18,00,02,14.50
2012,09,18,00,03,14.50
2012,09,18,00,04,14.50
2012,09,18,00,05,14.50
2012,09,18,00,06,14.50
2012,09,18,00,07,14.50
2012,09,18,00,08,14.50
2012,09,18,00,09,14.50
2012,09,18,00,10,14.50
2012,09,18,00,11,14.50
2012,09,18,00,12,14.40
2012,09,18,00,13,14.40
2012,09,18,00,14,14.30
2012,09,18,00,15,14.30
2012,09,18,00,16,14.30
2012,09,18,00,17,14.20
2012,09,18,00,18,14.20
2012,09,18,00,19,14.10
2012,09,18,00,20,14.00
2012,09,18,00,21,14.00
2012,09,18,00,22,13.90
2012,09,18,00,23,13.90
2012,09,18,00,24,13.90
2012,09,18,00,25,13.90
2012,09,18,00,26,13.90
2012,09,18,00,27,14.00
2012,09,18,00,28,14.00
2012,09,18,00,29,14.00
2012,09,18,00,30,14.00
2012,09,18,00,31,14.00
2012,09,18,00,32,14.00
2012,09,18,00,33,14.00
2012,09,18,00,34,13.90
2012,09,18,00,35,13.90
2012,09,18,00,36,13.90
2012,09,18,00,37,13.90
2012,09,18,00,38,13.80
2012,09,18,00,39,13.80
2012,09,18,00,40,13.80
2012,09,18,00,41,13.80
2012,09,18,00,42,13.70
2012,09,18,00,43,13.70
2012,09,18,00,44,13.70
2012,09,18,00,45,13.70
2012,09,18,00,46,13.70
2012,09,18,00,47,13.60
2012,09,18,00,48,13.60
2012,09,18,00,49,13.60
2012,09,18,00,50,13.60
2012,09,18,00,51,13.60
2012,09,18,00,52,13.60
2012,09,18,00,53,13.60
2012,09,18,00,54,13.50
2012,09,18,00,55,13.50
2012,09,18,00,56,13.50
2012,09,18,00,57,13.50
2012,09,18,00,58,13.50
2012,09,18,00,59,13.50
2012,09,18,01,00,13.50
2012,09,18,01,01,13.50
2012,09,18,01,02,13.60
2012,09,18,01,03,13.60
2012,09,18,01,04,13.60
2012,09,18,01,05,13.60
2012,09,18,01,06,13.70
2012,09,18,01,07,13.70
2012,09,18,01,08,13.70
2012,09,18,01,09,13.70
2012,09,18,01,10,13.80
2012,09,18,01,11,13.80
2012,09,18,01,12,13.80
2012,09,18,01,13,13.90
2012,09,18,01,14,13.90
2012,09,18,01,15,13.80
2012,09,18,01,16,13.80
2012,09,18,01,17,13.80
2012,09,18,01,18,13.70
2012,09,18,01,19,13.70
2012,09,18,01,20,13.60
2012,09,18,01,21,13.60
2012,09,18,01,22,13.50
2012,09,18,01,23,13.40
2012,09,18,01,24,13.40
2012,09,18,01,25,13.40
2012,09,18,01,26,13.40
2012,09,18,01,27,13.40
2012,09,18,01,28,13.40
2012,09,18,01,29,13.40
2012,09,18,01,30,13.40
2012,09,18,01,31,13.50
2012,09,18,01,32,13.50
2012,09,18,01,33,13.60
2012,09,18,01,34,13.60
2012,09,18,01,35,13.60
2012,09,18,01,36,13.60
2012,09,18,01,37,13.70
2012,09,18,01,38,13.70
2012,09,18,01,39,13.70
2012,09,18,01,40,13.60
2012,09,18,01,41,13.60
2012,09,18,01,42,13.60
2012,09,18,01,43,13.60
2012,09,18,01,44,13.60
2012,09,18,01,45,13.60
2012,09,18,01,46,13.60
2012,09,18,01,47,13.70
2012,09,18,01,48,13.70
2012,09,18,01,49,13.70
2012,09,18,01,50,13.70
2012,09,18,01,51,13.70
2012,09,18,01,52,13.70
2012,09,18,01,53,13.70
2012,09,18,01,54,13.80
2012,09,18,01,55,13.80
2012,09,18,01,56,13.80
2012,09,18,01,57,13.80
2012,09,18,01,58,13.90
2012,09,18,01,59,13.90
2012,09,18,02,00,13.90
2012,09,18,02,01,13.90
2012,09,18,02,02,13.90
2012,09,18,02,03,13.90
2012,09,18,02,04,13.90
2012,09,18,02,05,13.90
2012,09,18,02,06,13.90
2012,09,18,02,07,13.90
2012,09,18,02,08,13.80
2012,09,18,02,09,13.80
2012,09,18,02,10,13.80
2012,09,18,02,11,13.80
2012,09,18,02,12,13.70
2012,09,18,02,13,13.70
2012,09,18,02,14,13.70
2012,09,18,02,15,13.60
2012,09,18,02,16,13.60
2012,09,18,02,17,13.60
2012,09,18,02,18,13.60
2012,09,18,02,19,13.50
2012,09,18,02,20,13.50
2012,09,18,02,21,13.50
2012,09,18,02,22,13.40
2012,09,18,02,23,13.40
2012,09,18,02,24,13.40
2012,09,18,02,25,13.30
2012,09,18,02,26,13.30
2012,09,18,02,27,13.30
2012,09,18,02,28,13.30
2012,09,18,02,29,13.30
2012,09,18,02,30,13.30
2012,09,18,02,31,13.20
2012,09,18,02,32,13.20
2012,09,18,02,33,13.20
2012,09,18,02,34,13.20
2012,09,18,02,35,13.10
2012,09,18,02,36,13.10
2012,09,18,02,37,13.10
2012,09,18,02,38,13.10
2012,09,18,02,39,13.10
2012,09,18,02,40,13.10
2012,09,18,02,41,13.10
2012,09,18,02,42,13.10
2012,09,18,02,43,13.10
2012,09,18,02,44,13.10
2012,09,18,02,45,13.10
2012,09,18,02,46,13.20
2012,09,18,02,47,13.20
2012,09,18,02,48,13.20
2012,09,18,02,49,13.20
2012,09,18,02,50,13.20
2012,09,18,02,51,13.20
2012,09,18,02,52,13.20
2012,09,18,02,53,13.20
2012,09,18,02,54,13.20
2012,09,18,02,55,13.20
2012,09,18,02,56,13.20
2012,09,18,02,57,13.20
2012,09,18,02,58,13.20
2012,09,18,02,59,13.20
2012,09,18,03,00,13.20
2012,09,18,03,01,13.30
2012,09,18,03,02,13.30
2012,09,18,03,03,13.30
2012,09,18,03,06,13.30
2012,09,18,03,07,13.30
2012,09,18,03,08,13.30
2012,09,18,03,09,13.30
2012,09,18,03,10,13.30
2012,09,18,03,11,13.30
2012,09,18,03,12,13.30
2012,09,18,03,13,13.30
2012,09,18,03,14,13.30
2012,09,18,03,15,13.30
2012,09,18,03,16,13.30
2012,09,18,03,17,13.30
2012,09,18,03,18,13.30
2012,09,18,03,19,13.30
2012,09,18,03,20,13.40
2012,09,18,03,21,13.40
2012,09,18,03,22,13.40
2012,09,18,03,23,13.40
2012,09,18,03,24,13.40
2012,09,18,03,25,13.40
2012,09,18,03,26,13.40
2012,09,18,03,27,13.40
2012,09,18,03,28,13.40
2012,09,18,03,29,13.40
2012,09,18,03,30,13.40
2012,09,18,03,31,13.40
2012,09,18,03,32,13.40
2012,09,18,03,33,13.40
2012,09,18,03,34,13.40
2012,09,18,03,35,13.50
2012,09,18,03,36,13.50
2012,09,18,03,37,13.50
2012,09,18,03,38,13.60
2012,09,18,03,39,13.60
2012,09,18,03,40,13.60
2012,09,18,03,41,13.70
2012,09,18,03,42,13.70
2012,09,18,03,43,13.70
2012,09,18,03,44,13.70
2012,09,18,03,45,13.70
2012,09,18,03,46,13.60
2012,09,18,03,47,13.60
2012,09,18,03,48,13.60
2012,09,18,03,49,13.50
2012,09,18,03,50,13.40
2012,09,18,03,51,13.40
2012,09,18,03,52,13.30
2012,09,18,03,53,13.30
2012,09,18,03,54,13.30
2012,09,18,03,55,13.30
2012,09,18,03,56,13.20
2012,09,18,03,57,13.20
2012,09,18,03,58,13.20
2012,09,18,03,59,13.10
2012,09,18,04,00,13.10
2012,09,18,04,01,13.00
2012,09,18,04,02,13.00
2012,09,18,04,03,13.00
2012,09,18,04,04,13.00
2012,09,18,04,05,13.00
2012,09,18,04,06,13.00
2012,09,18,04,07,13.00
2012,09,18,04,08,13.00
2012,09,18,04,09,13.00
2012,09,18,04,10,13.00
2012,09,18,04,11,13.00
2012,09,18,04,12,13.00
2012,09,18,04,13,13.00
2012,09,18,04,14,13.00
2012,09,18,04,15,13.00
2012,09,18,04,16,13.00
2012,09,18,04,17,13.00
2012,09,18,04,18,13.00
2012,09,18,04,19,13.10
2012,09,18,04,20,13.10
2012,09,18,04,21,13.10
2012,09,18,04,22,13.10
2012,09,18,04,23,13.00
2012,09,18,04,24,13.00
2012,09,18,04,25,13.00
2012,09,18,04,26,13.00
2012,09,18,04,27,12.90
2012,09,18,04,28,12.90
2012,09,18,04,29,12.90
2012,09,18,04,30,12.90
2012,09,18,04,31,12.90
2012,09,18,04,32,12.90
2012,09,18,04,33,12.90
2012,09,18,04,34,12.90
2012,09,18,04,35,12.90
2012,09,18,04,36,12.90
2012,09,18,04,37,12.90
2012,09,18,04,38,12.80
2012,09,18,04,39,12.70
2012,09,18,04,40,12.70
2012,09,18,04,41,12.60
2012,09,18,04,42,12.60
2012,09,18,04,43,12.60
2012,09,18,04,44,12.60
2012,09,18,04,45,12.50
2012,09,18,04,46,12.50
2012,09,18,04,47,12.50
2012,09,18,04,48,12.50
2012,09,18,04,49,12.40
2012,09,18,04,50,12.40
2012,09,18,04,51,12.40
2012,09,18,04,52,12.40
2012,09,18,04,53,12.40
2012,09,18,04,54,12.40
2012,09,18,04,55,12.40
2012,09,18,04,56,12.40
2012,09,18,04,57,12.40
2012,09,18,04,58,12.40
2012,09,18,04,59,12.40
2012,09,18,05,00,12.30
2012,09,18,05,01,12.30
2012,09,18,05,02,12.30
2012,09,18,05,03,12.20
2012,09,18,05,04,12.20
2012,09,18,05,05,12.20
2012,09,18,05,06,12.20
2012,09,18,05,07,12.20
2012,09,18,05,08,12.20
2012,09,18,05,09,12.20
2012,09,18,05,10,12.10
2012,09,18,05,11,12.10
2012,09,18,05,12,12.20
2012,09,18,05,13,12.20
2012,09,18,05,14,12.20
2012,09,18,05,15,12.20
2012,09,18,05,16,12.20
2012,09,18,05,17,12.30
2012,09,18,05,18,12.30
2012,09,18,05,19,12.30
2012,09,18,05,20,12.30
2012,09,18,05,21,12.30
2012,09,18,05,22,12.30
2012,09,18,05,23,12.30
2012,09,18,05,24,12.30
2012,09,18,05,25,12.30
2012,09,18,05,26,12.30
2012,09,18,05,27,12.30
2012,09,18,05,28,12.30
2012,09,18,05,29,12.30
2012,09,18,05,30,12.30
2012,09,18,05,31,12.30
2012,09,18,05,32,12.20
2012,09,18,05,33,12.20
2012,09,18,05,34,12.20
2012,09,18,05,35,12.20
2012,09,18,05,36,12.20
2012,09,18,05,37,12.20
2012,09,18,05,38,12.20
2012,09,18,05,39,12.10
2012,09,18,05,40,12.10
2012,09,18,05,41,12.10
2012,09,18,05,42,12.00
2012,09,18,05,43,12.00
2012,09,18,05,44,12.00
2012,09,18,05,45,11.90
2012,09,18,05,46,11.90
2012,09,18,05,47,11.90
2012,09,18,05,48,12.00
2012,09,18,05,49,11.90
2012,09,18,05,50,11.90
2012,09,18,05,51,11.90
2012,09,18,05,52,11.90
2012,09,18,05,53,11.90
2012,09,18,05,54,12.00
2012,09,18,05,55,12.00
2012,09,18,05,56,12.00
2012,09,18,05,57,12.10
2012,09,18,05,58,12.10
2012,09,18,05,59,12.10
2012,09,18,06,00,12.10
2012,09,18,06,01,12.10
2012,09,18,06,02,12.10
2012,09,18,06,03,12.10
2012,09,18,06,04,12.10
2012,09,18,06,05,12.00
2012,09,18,06,06,12.00
2012,09,18,06,07,11.90
2012,09,18,06,08,11.90
2012,09,18,06,09,11.80
2012,09,18,06,10,11.80
2012,09,18,06,11,11.80
2012,09,18,06,12,11.80
2012,09,18,06,13,11.80
2012,09,18,06,14,11.70
2012,09,18,06,15,11.70
2012,09,18,06,16,11.70
2012,09,18,06,17,11.70
2012,09,18,06,18,11.70
2012,09,18,06,19,11.60
2012,09,18,06,20,11.60
2012,09,18,06,21,11.60
2012,09,18,06,22,11.60
2012,09,18,06,23,11.60
2012,09,18,06,24,11.50
2012,09,18,06,25,11.50
2012,09,18,06,26,11.50
2012,09,18,06,27,11.40
2012,09,18,06,28,11.40
2012,09,18,06,29,11.40
2012,09,18,06,30,11.40
2012,09,18,06,31,11.40
2012,09,18,06,32,11.40
2012,09,18,06,33,11.40
2012,09,18,06,34,11.40
2012,09,18,06,35,11.40
2012,09,18,06,36,11.40
2012,09,18,06,37,11.40
2012,09,18,06,38,11.40
2012,09,18,06,39,11.40
2012,09,18,06,40,11.40
2012,09,18,06,41,11.40
2012,09,18,06,42,11.40
2012,09,18,06,43,11.30
2012,09,18,06,44,11.40
2012,09,18,06,45,11.40
2012,09,18,06,46,11.40
2012,09,18,06,47,11.40
2012,09,18,06,48,11.40
2012,09,18,06,49,11.40
2012,09,18,06,50,11.40
2012,09,18,06,51,11.30
2012,09,18,06,52,11.30
2012,09,18,06,53,11.40
2012,09,18,06,54,11.40
2012,09,18,06,55,11.40
2012,09,18,06,56,11.30
2012,09,18,06,57,11.30
2012,09,18,06,58,11.30
2012,09,18,06,59,11.30
2012,09,18,07,00,11.30
2012,09,18,07,01,11.20
2012,09,18,07,02,11.20
2012,09,18,07,03,11.20
2012,09,18,07,04,11.20
2012,09,18,07,05,11.10
2012,09,18,07,06,11.10
2012,09,18,07,07,11.10
2012,09,18,07,08,11.10
2012,09,18,07,09,11.10
2012,09,18,07,10,11.10
2012,09,18,07,11,11.10
2012,09,18,07,12,11.10
2012,09,18,07,13,11.10
2012,09,18,07,14,11.10
2012,09,18,07,15,11.10
2012,09,18,07,16,11.10
2012,09,18,07,17,11.10
2012,09,18,07,18,11.10
2012,09,18,07,19,11.10
2012,09,18,07,20,11.10
2012,09,18,07,21,11.10
2012,09,18,07,22,11.10
2012,09,18,07,23,11.10
2012,09,18,07,24,11.10
2012,09,18,07,25,11.10
2012,09,18,07,26,11.10
2012,09,18,07,27,11.10
2012,09,18,07,28,11.10
2012,09,18,07,29,11.10
2012,09,18,07,30,11.10
2012,09,18,07,31,11.10
2012,09,18,07,32,11.10
2012,09,18,07,33,11.10
2012,09,18,07,34,11.20
2012,09,18,07,35,11.20
2012,09,18,07,36,11.20
2012,09,18,07,37,11.20
2012,09,18,07,38,11.20
2012,09,18,07,39,11.20
2012,09,18,07,40,11.30
2012,09,18,07,41,11.30
2012,09,18,07,42,11.30
2012,09,18,07,43,11.30
2012,09,18,07,44,11.30
2012,09,18,07,45,11.40
2012,09,18,07,46,11.50
2012,09,18,07,47,11.50
2012,09,18,07,48,11.60
2012,09,18,07,49,11.70
2012,09,18,07,50,11.70
2012,09,18,07,51,11.80
2012,09,18,07,52,11.80
2012,09,18,07,53,11.90
2012,09,18,07,54,12.00
2012,09,18,07,55,12.00
2012,09,18,07,56,12.10
2012,09,18,07,57,12.20
2012,09,18,07,58,12.20
2012,09,18,07,59,12.30
2012,09,18,08,00,12.40
2012,09,18,08,01,12.50
2012,09,18,08,02,12.60
2012,09,18,08,03,12.70
2012,09,18,08,04,12.80
2012,09,18,08,05,12.80
2012,09,18,08,06,12.90
2012,09,18,08,07,13.00
2012,09,18,08,08,13.10
2012,09,18,08,09,13.20
2012,09,18,08,10,13.30
2012,09,18,08,11,13.40
2012,09,18,08,12,13.40
2012,09,18,08,13,13.50
2012,09,18,08,14,13.60
2012,09,18,08,15,13.70
2012,09,18,08,16,13.70
2012,09,18,08,17,13.80
2012,09,18,08,18,13.80
2012,09,18,08,19,13.90
2012,09,18,08,20,14.00
2012,09,18,08,21,14.00
2012,09,18,08,22,14.10
2012,09,18,08,23,14.10
2012,09,18,08,24,14.20
2012,09,18,08,25,14.20
2012,09,18,08,26,14.20
2012,09,18,08,27,14.20
2012,09,18,08,28,14.20
2012,09,18,08,29,14.20
2012,09,18,08,30,14.20
2012,09,18,08,31,14.30
2012,09,18,08,32,14.30
2012,09,18,08,33,14.30
2012,09,18,08,34,14.30
2012,09,18,08,35,14.30
2012,09,18,08,36,14.30
2012,09,18,08,37,14.30
2012,09,18,08,38,14.30
2012,09,18,08,39,14.30
2012,09,18,08,40,14.40
2012,09,18,08,41,14.40
2012,09,18,08,42,14.50
2012,09,18,08,43,14.50
2012,09,18,08,44,14.60
2012,09,18,08,45,14.70
2012,09,18,08,46,14.80
2012,09,18,08,47,14.90
2012,09,18,08,48,15.00
2012,09,18,08,49,15.00
2012,09,18,08,50,15.10
2012,09,18,08,51,15.20
2012,09,18,08,52,15.30
2012,09,18,08,53,15.40
2012,09,18,08,54,15.40
2012,09,18,08,55,15.40
2012,09,18,08,56,15.40
2012,09,18,08,57,15.40
2012,09,18,08,58,15.50
2012,09,18,08,59,15.50
2012,09,18,09,00,15.60
2012,09,18,09,01,15.70
2012,09,18,09,02,15.70
2012,09,18,09,03,15.80
2012,09,18,09,04,15.90
2012,09,18,09,05,16.00
2012,09,18,09,06,16.10
2012,09,18,09,07,16.10
2012,09,18,09,08,16.20
2012,09,18,09,09,16.20
2012,09,18,09,10,16.30
2012,09,18,09,11,16.30
2012,09,18,09,12,16.30
2012,09,18,09,13,16.30
2012,09,18,09,14,16.40
2012,09,18,09,15,16.50
2012,09,18,09,16,16.60
2012,09,18,09,17,16.70
2012,09,18,09,18,16.70
2012,09,18,09,19,16.70
2012,09,18,09,20,16.80
2012,09,18,09,21,16.80
2012,09,18,09,22,16.90
2012,09,18,09,23,16.90
2012,09,18,09,24,17.00
2012,09,18,09,25,17.00
2012,09,18,09,26,17.10
2012,09,18,09,27,17.10
2012,09,18,09,28,17.20
2012,09,18,09,29,17.30
2012,09,18,09,30,17.40
2012,09,18,09,31,17.40
2012,09,18,09,32,17.50
2012,09,18,09,33,17.50
2012,09,18,09,34,17.60
2012,09,18,09,35,17.60
2012,09,18,09,36,17.60
2012,09,18,09,37,17.60
2012,09,18,09,38,17.70
2012,09,18,09,39,17.80
2012,09,18,09,40,17.80
2012,09,18,09,41,17.90
2012,09,18,09,42,17.90
2012,09,18,09,43,18.00
2012,09,18,09,44,18.10
2012,09,18,09,45,18.20
2012,09,18,09,46,18.20
2012,09,18,09,47,18.30
2012,09,18,09,48,18.30
2012,09,18,09,49,18.30
2012,09,18,09,50,18.30
2012,09,18,09,51,18.30
2012,09,18,09,52,18.30
2012,09,18,09,53,18.30
2012,09,18,09,54,18.30
2012,09,18,09,55,18.30
2012,09,18,09,56,18.40
2012,09,18,09,57,18.40
2012,09,18,09,58,18.40
2012,09,18,09,59,18.50
2012,09,18,10,00,18.60
2012,09,18,10,01,18.60
2012,09,18,10,02,18.70
2012,09,18,10,03,18.70
2012,09,18,10,04,18.80
2012,09,18,10,05,18.80
2012,09,18,10,06,18.90
2012,09,18,10,07,19.00
2012,09,18,10,08,19.10
2012,09,18,10,09,19.10
2012,09,18,10,10,19.10
2012,09,18,10,11,19.20
2012,09,18,10,12,19.20
2012,09,18,10,13,19.20
2012,09,18,10,14,19.30
2012,09,18,10,15,19.30
2012,09,18,10,16,19.40
2012,09,18,10,17,19.50
2012,09,18,10,18,19.60
2012,09,18,10,19,19.70
2012,09,18,10,20,19.70
2012,09,18,10,21,19.80
2012,09,18,10,22,19.90
2012,09,18,10,23,19.90
2012,09,18,10,24,20.00
2012,09,18,10,25,20.00
2012,09,18,10,26,20.10
2012,09,18,10,27,20.10
2012,09,18,10,28,20.10
2012,09,18,10,29,20.10
2012,09,18,10,30,20.10
2012,09,18,10,31,20.10
2012,09,18,10,32,20.20
2012,09,18,10,33,20.20
2012,09,18,10,34,20.20
2012,09,18,10,35,20.30
2012,09,18,10,36,20.30
2012,09,18,10,37,20.40
2012,09,18,10,38,20.50
2012,09,18,10,39,20.60
2012,09,18,10,40,20.70
2012,09,18,10,41,20.80
2012,09,18,10,42,20.80
2012,09,18,10,43,20.90
2012,09,18,10,44,21.00
2012,09,18,10,45,21.00
2012,09,18,10,46,21.00
2012,09,18,10,47,21.00
2012,09,18,10,48,21.00
2012,09,18,10,49,21.00
2012,09,18,10,50,21.00
2012,09,18,10,51,21.00
2012,09,18,10,52,21.10
2012,09,18,10,53,21.10
2012,09,18,10,54,21.10
2012,09,18,10,55,21.10
2012,09,18,10,56,21.10
2012,09,18,10,57,21.10
2012,09,18,10,58,21.20
2012,09,18,10,59,21.20
2012,09,18,11,00,21.20
2012,09,18,11,01,21.30
2012,09,18,11,02,21.30
2012,09,18,11,03,21.40
2012,09,18,11,04,21.30
2012,09,18,11,05,21.30
2012,09,18,11,06,21.30
2012,09,18,11,07,21.20
2012,09,18,11,08,21.20
2012,09,18,11,09,21.20
2012,09,18,11,10,21.20
2012,09,18,11,11,21.30
2012,09,18,11,12,21.30
2012,09,18,11,13,21.40
2012,09,18,11,14,21.50
2012,09,18,11,15,21.60
2012,09,18,11,16,21.80
2012,09,18,11,17,21.90
2012,09,18,11,18,22.00
2012,09,18,11,19,22.10
2012,09,18,11,20,22.20
2012,09,18,11,21,22.30
2012,09,18,11,22,22.50
2012,09,18,11,23,22.60
2012,09,18,11,24,22.70
2012,09,18,11,25,22.80
2012,09,18,11,26,22.80
2012,09,18,11,27,23.00
2012,09,18,11,28,23.10
2012,09,18,11,29,23.20
2012,09,18,11,30,23.30
2012,09,18,11,31,23.30
2012,09,18,11,32,23.30
2012,09,18,11,33,23.30
2012,09,18,11,34,23.30
2012,09,18,11,35,23.30
2012,09,18,11,36,23.40
2012,09,18,11,37,23.40
2012,09,18,11,38,23.40
2012,09,18,11,39,23.50
2012,09,18,11,40,23.60
2012,09,18,11,41,23.70
2012,09,18,11,42,23.70
2012,09,18,11,43,23.60
2012,09,18,11,44,23.60
2012,09,18,11,45,23.50
2012,09,18,11,46,23.30
2012,09,18,11,47,23.20
2012,09,18,11,48,23.10
2012,09,18,11,49,22.90
2012,09,18,11,50,22.80
2012,09,18,11,51,22.80
2012,09,18,11,52,22.70
2012,09,18,11,53,22.60
2012,09,18,11,54,22.60
2012,09,18,11,55,22.60
2012,09,18,11,56,22.70
2012,09,18,11,57,22.70
2012,09,18,11,58,22.80
2012,09,18,11,59,22.80
2012,09,18,12,00,22.90
2012,09,18,12,01,23.00
2012,09,18,12,02,23.00
2012,09,18,12,03,23.10
2012,09,18,12,04,23.20
2012,09,18,12,05,23.30
2012,09,18,12,06,23.30
2012,09,18,12,07,23.30
2012,09,18,12,08,23.40
2012,09,18,12,09,23.40
2012,09,18,12,10,23.40
2012,09,18,12,11,23.40
2012,09,18,12,12,23.40
2012,09,18,12,13,23.40
2012,09,18,12,14,23.30
2012,09,18,12,15,23.30
2012,09,18,12,16,23.30
2012,09,18,12,17,23.10
2012,09,18,12,18,23.00
2012,09,18,12,19,22.90
2012,09,18,12,20,22.90
2012,09,18,12,21,22.90
2012,09,18,12,22,22.90
2012,09,18,12,23,22.80
2012,09,18,12,24,22.80
2012,09,18,12,25,22.80
2012,09,18,12,26,22.80
2012,09,18,12,27,22.80
2012,09,18,12,28,22.80
2012,09,18,12,29,22.80
2012,09,18,12,30,22.80
2012,09,18,12,31,22.80
2012,09,18,12,32,22.80
2012,09,18,12,33,22.80
2012,09,18,12,34,22.80
2012,09,18,12,35,22.80
2012,09,18,12,36,22.80
2012,09,18,12,37,22.90
2012,09,18,12,38,22.90
2012,09,18,12,39,22.80
2012,09,18,12,40,22.80
2012,09,18,12,41,22.80
2012,09,18,12,42,22.70
2012,09,18,12,43,22.70
2012,09,18,12,44,22.70
2012,09,18,12,45,22.70
2012,09,18,12,46,22.70
2012,09,18,12,47,22.70
2012,09,18,12,48,22.70
2012,09,18,12,49,22.70
2012,09,18,12,50,22.70
2012,09,18,12,51,22.70
2012,09,18,12,52,22.80
2012,09,18,12,53,22.80
2012,09,18,12,54,22.90
2012,09,18,12,55,23.00
2012,09,18,12,56,23.10
2012,09,18,12,57,23.10
2012,09,18,12,58,23.20
2012,09,18,12,59,23.30
2012,09,18,13,00,23.40
2012,09,18,13,01,23.40
2012,09,18,13,02,23.50
2012,09,18,13,03,23.50
2012,09,18,13,04,23.60
2012,09,18,13,05,23.50
2012,09,18,13,06,23.50
2012,09,18,13,07,23.50
2012,09,18,13,08,23.50
2012,09,18,13,09,23.50
2012,09,18,13,10,23.50
2012,09,18,13,11,23.60
2012,09,18,13,12,23.60
2012,09,18,13,13,23.70
2012,09,18,13,14,23.80
2012,09,18,13,15,23.80
2012,09,18,13,16,23.90
2012,09,18,13,17,23.90
2012,09,18,13,18,23.90
2012,09,18,13,19,23.80
2012,09,18,13,20,23.80
2012,09,18,13,21,23.70
2012,09,18,13,22,23.50
2012,09,18,13,23,23.50
2012,09,18,13,24,23.40
2012,09,18,13,25,23.30
2012,09,18,13,26,23.30
2012,09,18,13,27,23.30
2012,09,18,13,28,23.40
2012,09,18,13,29,23.50
2012,09,18,13,30,23.50
2012,09,18,13,31,23.50
2012,09,18,13,32,23.60
2012,09,18,13,33,23.70
2012,09,18,13,34,23.70
2012,09,18,13,35,23.80
2012,09,18,13,36,23.90
2012,09,18,13,37,24.00
2012,09,18,13,38,24.10
2012,09,18,13,39,24.10
2012,09,18,13,40,24.10
2012,09,18,13,41,24.00
2012,09,18,13,42,24.00
2012,09,18,13,43,23.90
2012,09,18,13,44,23.80
2012,09,18,13,45,23.80
2012,09,18,13,46,23.70
2012,09,18,13,47,23.70
2012,09,18,13,48,23.60
2012,09,18,13,49,23.60
2012,09,18,13,50,23.60
2012,09,18,13,51,23.70
2012,09,18,13,52,23.80
2012,09,18,13,53,24.00
2012,09,18,13,54,24.10
2012,09,18,13,55,24.20
2012,09,18,13,56,24.20
2012,09,18,13,57,24.30
2012,09,18,13,58,24.30
2012,09,18,13,59,24.30
2012,09,18,14,00,24.40
2012,09,18,14,01,24.50
2012,09,18,14,02,24.50
2012,09,18,14,03,24.50
2012,09,18,14,04,24.60
2012,09,18,14,05,24.60
2012,09,18,14,06,24.50
2012,09,18,14,07,24.40
2012,09,18,14,08,24.30
2012,09,18,14,09,24.20
2012,09,18,14,10,24.10
2012,09,18,14,11,23.90
2012,09,18,14,12,23.80
2012,09,18,14,13,23.70
2012,09,18,14,14,23.80
2012,09,18,14,15,23.80
2012,09,18,14,16,23.80
2012,09,18,14,17,23.90
2012,09,18,14,18,24.00
2012,09,18,14,19,24.00
2012,09,18,14,20,24.10
2012,09,18,14,21,24.00
2012,09,18,14,22,24.00
2012,09,18,14,23,24.00
2012,09,18,14,24,24.00
2012,09,18,14,25,24.00
2012,09,18,14,26,24.00
2012,09,18,14,27,24.10
2012,09,18,14,28,24.10
2012,09,18,14,29,24.00
2012,09,18,14,30,24.00
2012,09,18,14,31,23.90
2012,09,18,14,32,23.90
2012,09,18,14,33,23.90
2012,09,18,14,34,23.90
2012,09,18,14,35,23.90
2012,09,18,14,36,24.00
2012,09,18,14,37,24.10
2012,09,18,14,38,24.10
2012,09,18,14,39,24.20
2012,09,18,14,40,24.30
2012,09,18,14,41,24.30
2012,09,18,14,42,24.30
2012,09,18,14,43,24.30
2012,09,18,14,44,24.20
2012,09,18,14,45,24.20
2012,09,18,14,46,24.10
2012,09,18,14,47,24.00
2012,09,18,14,48,24.00
2012,09,18,14,49,24.00
2012,09,18,14,50,24.00
2012,09,18,14,51,24.00
2012,09,18,14,52,24.00
2012,09,18,14,53,23.90
2012,09,18,14,54,23.90
2012,09,18,14,55,23.90
2012,09,18,14,56,24.00
2012,09,18,14,57,24.10
2012,09,18,14,58,24.10
2012,09,18,14,59,24.20
2012,09,18,15,00,24.30
2012,09,18,15,01,24.40
2012,09,18,15,02,24.40
2012,09,18,15,03,24.30
2012,09,18,15,04,24.30
2012,09,18,15,05,24.30
2012,09,18,15,06,24.30
2012,09,18,15,07,24.30
2012,09,18,15,08,24.30
2012,09,18,15,09,24.30
2012,09,18,15,10,24.30
2012,09,18,15,11,24.40
2012,09,18,15,12,24.50
2012,09,18,15,13,24.60
2012,09,18,15,14,24.60
2012,09,18,15,15,24.60
2012,09,18,15,16,24.60
2012,09,18,15,17,24.60
2012,09,18,15,18,24.60
2012,09,18,15,19,24.60
2012,09,18,15,20,24.60
2012,09,18,15,21,24.60
2012,09,18,15,22,24.60
2012,09,18,15,23,24.60
2012,09,18,15,24,24.60
2012,09,18,15,25,24.60
2012,09,18,15,26,24.60
2012,09,18,15,27,24.70
2012,09,18,15,28,24.70
2012,09,18,15,29,24.60
2012,09,18,15,30,24.60
2012,09,18,15,31,24.60
2012,09,18,15,32,24.60
2012,09,18,15,33,24.60
2012,09,18,15,34,24.60
2012,09,18,15,35,24.70
2012,09,18,15,36,24.70
2012,09,18,15,37,24.60
2012,09,18,15,38,24.60
2012,09,18,15,39,24.60
2012,09,18,15,40,24.60
2012,09,18,15,41,24.60
2012,09,18,15,42,24.60
2012,09,18,15,43,24.70
2012,09,18,15,44,24.70
2012,09,18,15,45,24.80
2012,09,18,15,46,24.90
2012,09,18,15,47,25.00
2012,09,18,15,48,25.10
2012,09,18,15,49,25.10
2012,09,18,15,50,25.10
2012,09,18,15,51,25.10
2012,09,18,15,52,25.20
2012,09,18,15,53,25.20
2012,09,18,15,54,25.20
2012,09,18,15,55,25.10
2012,09,18,15,56,25.10
2012,09,18,15,57,25.00
2012,09,18,15,58,25.00
2012,09,18,15,59,25.00
2012,09,18,16,00,25.00
2012,09,18,16,01,25.00
2012,09,18,16,02,25.10
2012,09,18,16,03,25.10
2012,09,18,16,04,25.20
2012,09,18,16,05,25.20
2012,09,18,16,06,25.20
2012,09,18,16,07,25.20
2012,09,18,16,08,25.10
2012,09,18,16,09,25.10
2012,09,18,16,10,25.00
2012,09,18,16,11,25.00
2012,09,18,16,12,24.90
2012,09,18,16,13,24.90
2012,09,18,16,14,24.80
2012,09,18,16,15,24.80
2012,09,18,16,16,24.80
2012,09,18,16,17,24.80
2012,09,18,16,18,24.90
2012,09,18,16,19,24.90
2012,09,18,16,20,25.00
2012,09,18,16,21,25.00
2012,09,18,16,22,25.00
2012,09,18,16,23,25.10
2012,09,18,16,24,25.10
2012,09,18,16,25,25.10
2012,09,18,16,26,25.10
2012,09,18,16,27,25.20
2012,09,18,16,28,25.20
2012,09,18,16,29,25.10
2012,09,18,16,30,25.10
2012,09,18,16,31,25.00
2012,09,18,16,32,25.00
2012,09,18,16,33,25.00
2012,09,18,16,34,25.00
2012,09,18,16,35,25.00
2012,09,18,16,36,25.00
2012,09,18,16,37,25.00
2012,09,18,16,38,24.90
2012,09,18,16,39,24.90
2012,09,18,16,40,24.90
2012,09,18,16,41,24.90
2012,09,18,16,42,24.90
2012,09,18,16,43,24.90
2012,09,18,16,44,24.80
2012,09,18,16,45,24.80
2012,09,18,16,46,24.80
2012,09,18,16,47,24.80
2012,09,18,16,48,24.90
2012,09,18,16,49,24.90
2012,09,18,16,50,24.80
2012,09,18,16,51,24.80
2012,09,18,16,52,24.80
2012,09,18,16,53,24.80
2012,09,18,16,54,24.80
2012,09,18,16,55,24.80
2012,09,18,16,56,24.80
2012,09,18,16,57,24.80
2012,09,18,16,58,24.80
2012,09,18,16,59,24.70
2012,09,18,17,00,24.60
2012,09,18,17,01,24.60
2012,09,18,17,02,24.60
2012,09,18,17,03,24.60
2012,09,18,17,04,24.50
2012,09,18,17,05,24.50
2012,09,18,17,06,24.40
2012,09,18,17,07,24.40
2012,09,18,17,08,24.40
2012,09,18,17,09,24.40
2012,09,18,17,10,24.40
2012,09,18,17,11,24.40
2012,09,18,17,12,24.40
2012,09,18,17,13,24.40
2012,09,18,17,14,24.30
2012,09,18,17,15,24.30
2012,09,18,17,16,24.30
2012,09,18,17,17,24.30
2012,09,18,17,18,24.20
2012,09,18,17,19,24.20
2012,09,18,17,20,24.20
2012,09,18,17,21,24.20